Location: Newark
(54.2500°N, 9.1833°E)
Time: 06:08:34
(UTC+00:00)

Vanguard 2 Rocket - Pass Details

Date: 15 December 2019
Orbit: 554 x 3326 km, 32.9° (Epoch: 20 January)

Event Time Altitude Azimuth Distance (km) Brightness Sun altitude
Rises 17:27:30 0° 241° (WSW) 6,861 12.7 -20.0°
Reaches altitude 10° 17:33:38 10° 231° (SW) 5,448 11.7 -20.9°
Maximum altitude 17:44:32 25° 186° (S) 3,425 9.9 -22.4°
Enters shadow 17:51:46 11° 138° (SE) 3,610 9.6 -23.5°
